Location: Marsån
(66.4167°N, 22.2833°E)
Time: 11:40:27
(UTC+00:00)

Cosmos 1954 Rocket - Pass Details

Date: 24 February 2024
Orbit: 750 x 780 km, 74.0° (Epoch: 15 April)

Event Time Altitude Azimuth Distance (km) Brightness Sun altitude
Rises 18:12:15 0° 232° (SW) 3,199 7.7 -17.4°
Reaches altitude 10° 18:14:37 10° 235° (SW) 2,277 7.0 -17.6°
Maximum altitude 18:19:46 70° 319° (NW) 804 4.2 -18.1°
Drops below altitude 10° 18:24:58 10° 44° (NE) 2,296 6.2 -18.6°
Enters shadow 18:25:45 - 45° (NE) 2,600 6.5 -18.6°
